{"data":{"norad_id":62180,"epoch":"2026-09-21T01:42:20.282112Z","epoch_age_seconds":128306,"freshness":"FRESH","line1":"1 62180U 24225T   26264.07106808  .00008366  00000+0  70789-3 0  9998","line2":"2 62180  70.0034  31.6457 0002993 250.9746 109.1089 14.98342342 99146","mean_motion":14.98342342,"eccentricity":0.0002993,"inclination_deg":70.0034,"raan_deg":31.6457,"arg_perigee_deg":250.9746,"mean_anomaly_deg":109.1089,"bstar":0.00070789,"rev_number":9914,"period_min":96.106207482455,"perigee_km":569.93754328043,"apogee_km":574.09790589857,"semimajor_km":6950.1547245895,"source":"CELESTRAK","updated_at":"2026-09-22T09:00:49.537688Z"}}